Time,TemperatureF,DewpointF,PressureIn,WindDirection,WindDirectionDegrees,WindSpeedMPH,WindSpeedGustMPH,Humidity,HourlyPrecipIn,Conditions,Clouds,dailyrainin,SolarRadiationWatts/m^2,SoftwareType,DateUTC
2013-04-26 00:21:00,71.0,30.0,-100.00,WNW,295,14.0,25.0,22,0.00,,,0.00,650.000000,,2013-04-26 00:21:00,
2013-04-26 00:31:00,71.0,30.0,-100.00,WNW,295,14.0,25.0,22,0.00,,,0.00,650.000000,,2013-04-26 00:31:00,
2013-04-26 00:41:00,71.0,30.0,-100.00,WNW,295,14.0,25.0,22,0.00,,,0.00,650.000000,,2013-04-26 00:41:00,
2013-04-26 00:51:00,71.0,30.0,-100.00,WNW,295,14.0,25.0,22,0.00,,,0.00,650.000000,,2013-04-26 00:51:00,
2013-04-26 01:21:00,65.0,37.0,-100.00,West,271,14.0,24.0,35,0.00,,,-99.99,293.000000,,2013-04-26 01:21:00,
2013-04-26 01:31:00,65.0,37.0,-100.00,West,271,14.0,24.0,35,0.00,,,-99.99,293.000000,,2013-04-26 01:31:00,
2013-04-26 01:41:00,65.0,37.0,-100.00,West,271,14.0,24.0,35,0.00,,,-99.99,293.000000,,2013-04-26 01:41:00,
2013-04-26 01:52:00,65.0,37.0,-100.00,West,271,14.0,24.0,35,0.00,,,-99.99,293.000000,,2013-04-26 01:52:00,
2013-04-26 02:21:00,62.0,39.0,-100.00,WNW,285,9.0,20.0,43,0.00,,,0.00,121.000000,,2013-04-26 02:21:00,
2013-04-26 02:32:00,62.0,39.0,-100.00,WNW,285,9.0,20.0,43,0.00,,,0.00,121.000000,,2013-04-26 02:32:00,
2013-04-26 02:42:00,62.0,39.0,-100.00,WNW,285,9.0,20.0,43,0.00,,,0.00,121.000000,,2013-04-26 02:42:00,
2013-04-26 02:51:00,62.0,39.0,-100.00,WNW,285,9.0,20.0,43,0.00,,,0.00,121.000000,,2013-04-26 02:51:00,
2013-04-26 03:21:00,58.0,40.0,-100.00,WNW,298,9.0,13.0,52,0.00,,,0.00,39.000000,,2013-04-26 03:21:00,
2013-04-26 03:33:00,58.0,40.0,-100.00,WNW,298,9.0,13.0,52,0.00,,,0.00,39.000000,,2013-04-26 03:33:00,
2013-04-26 03:43:00,58.0,40.0,-100.00,WNW,298,9.0,13.0,52,0.00,,,0.00,39.000000,,2013-04-26 03:43:00,
2013-04-26 03:52:00,58.0,40.0,-100.00,WNW,298,9.0,13.0,52,0.00,,,0.00,39.000000,,2013-04-26 03:52:00,
2013-04-26 04:22:00,55.0,37.0,-100.00,NW,326,7.0,11.0,50,0.00,,,0.00,2.000000,,2013-04-26 04:22:00,
2013-04-26 04:32:00,55.0,37.0,-100.00,NW,326,7.0,11.0,50,0.00,,,0.00,2.000000,,2013-04-26 04:32:00,
2013-04-26 04:43:00,55.0,37.0,-100.00,NW,326,7.0,11.0,50,0.00,,,0.00,2.000000,,2013-04-26 04:43:00,
2013-04-26 04:52:00,55.0,37.0,-100.00,NW,326,7.0,11.0,50,0.00,,,0.00,2.000000,,2013-04-26 04:52:00,
2013-04-26 05:22:00,54.0,34.0,-100.00,North,1,5.0,12.0,46,0.00,,,0.00,1.000000,,2013-04-26 05:22:00,
2013-04-26 05:32:00,54.0,34.0,-100.00,North,1,5.0,12.0,46,0.00,,,0.00,1.000000,,2013-04-26 05:32:00,
2013-04-26 05:42:00,54.0,34.0,-100.00,North,1,5.0,12.0,46,0.00,,,0.00,1.000000,,2013-04-26 05:42:00,
2013-04-26 05:52:00,54.0,34.0,-100.00,North,1,5.0,12.0,46,0.00,,,0.00,1.000000,,2013-04-26 05:52:00,
2013-04-26 06:21:00,50.0,34.0,-100.00,ENE,60,3.0,8.0,55,0.00,,,0.00,1.000000,,2013-04-26 06:21:00,
2013-04-26 06:32:00,50.0,34.0,-100.00,ENE,60,3.0,8.0,55,0.00,,,0.00,1.000000,,2013-04-26 06:32:00,
2013-04-26 06:41:00,50.0,34.0,-100.00,ENE,60,3.0,8.0,55,0.00,,,0.00,1.000000,,2013-04-26 06:41:00,
2013-04-26 06:51:00,50.0,34.0,-100.00,ENE,60,3.0,8.0,55,0.00,,,0.00,1.000000,,2013-04-26 06:51:00,
2013-04-26 07:22:00,47.0,34.0,-100.00,ENE,78,3.0,6.0,60,0.00,,,0.00,1.000000,,2013-04-26 07:22:00,
2013-04-26 07:31:00,47.0,34.0,-100.00,ENE,78,3.0,6.0,60,0.00,,,0.00,1.000000,,2013-04-26 07:31:00,
2013-04-26 07:42:00,47.0,34.0,-100.00,ENE,78,3.0,6.0,60,0.00,,,0.00,1.000000,,2013-04-26 07:42:00,
2013-04-26 07:52:00,47.0,34.0,-100.00,ENE,78,3.0,6.0,60,0.00,,,0.00,1.000000,,2013-04-26 07:52:00,
2013-04-26 08:21:00,46.0,35.0,-100.00,East,98,2.0,4.0,64,0.00,,,0.00,1.000000,,2013-04-26 08:21:00,
2013-04-26 08:31:00,46.0,35.0,-100.00,East,98,2.0,4.0,64,0.00,,,0.00,1.000000,,2013-04-26 08:31:00,
2013-04-26 08:42:00,46.0,35.0,-100.00,East,98,2.0,4.0,64,0.00,,,0.00,1.000000,,2013-04-26 08:42:00,
2013-04-26 08:51:00,46.0,35.0,-100.00,East,98,2.0,4.0,64,0.00,,,0.00,1.000000,,2013-04-26 08:51:00,
2013-04-26 09:21:00,47.0,33.0,-100.00,NNE,13,3.0,4.0,59,0.00,,,0.00,1.000000,,2013-04-26 09:21:00,
2013-04-26 09:33:00,47.0,33.0,-100.00,NNE,13,3.0,4.0,59,0.00,,,0.00,1.000000,,2013-04-26 09:33:00,
2013-04-26 09:42:00,47.0,33.0,-100.00,NNE,13,3.0,4.0,59,0.00,,,0.00,1.000000,,2013-04-26 09:42:00,
2013-04-26 09:53:00,47.0,33.0,-100.00,NNE,13,3.0,4.0,59,0.00,,,0.00,1.000000,,2013-04-26 09:53:00,
2013-04-26 10:22:00,39.0,32.0,-100.00,ENE,60,5.0,6.0,76,0.00,,,0.00,1.000000,,2013-04-26 10:22:00,
2013-04-26 10:33:00,39.0,32.0,-100.00,ENE,60,5.0,6.0,76,0.00,,,0.00,1.000000,,2013-04-26 10:33:00,
2013-04-26 10:42:00,39.0,32.0,-100.00,ENE,60,5.0,6.0,76,0.00,,,0.00,1.000000,,2013-04-26 10:42:00,
2013-04-26 10:52:00,39.0,32.0,-100.00,ENE,60,5.0,6.0,76,0.00,,,0.00,1.000000,,2013-04-26 10:52:00,
2013-04-26 11:22:00,38.0,32.0,-100.00,East,85,3.0,6.0,80,0.00,,,-99.99,1.000000,,2013-04-26 11:22:00,
2013-04-26 11:32:00,38.0,32.0,-100.00,East,85,3.0,6.0,80,0.00,,,-99.99,1.000000,,2013-04-26 11:32:00,
2013-04-26 11:41:00,38.0,32.0,-100.00,East,85,3.0,6.0,80,0.00,,,-99.99,1.000000,,2013-04-26 11:41:00,
2013-04-26 11:51:00,38.0,32.0,-100.00,East,85,3.0,6.0,80,0.00,,,-99.99,1.000000,,2013-04-26 11:51:00,
2013-04-26 12:21:00,37.0,32.0,-100.00,ENE,72,7.0,8.0,82,0.00,,,0.00,1.000000,,2013-04-26 12:21:00,
2013-04-26 12:32:00,37.0,32.0,-100.00,ENE,72,7.0,8.0,82,0.00,,,0.00,1.000000,,2013-04-26 12:32:00,
2013-04-26 12:41:00,37.0,32.0,-100.00,ENE,72,7.0,8.0,82,0.00,,,0.00,1.000000,,2013-04-26 12:41:00,
2013-04-26 12:52:00,37.0,32.0,-100.00,ENE,72,7.0,8.0,82,0.00,,,0.00,1.000000,,2013-04-26 12:52:00,
2013-04-26 13:21:00,38.0,33.0,-100.00,ENE,64,5.0,8.0,81,0.00,,,0.00,1.000000,,2013-04-26 13:21:00,
2013-04-26 13:31:00,38.0,33.0,-100.00,ENE,64,5.0,8.0,81,0.00,,,0.00,1.000000,,2013-04-26 13:31:00,
2013-04-26 13:41:00,38.0,33.0,-100.00,ENE,64,5.0,8.0,81,0.00,,,0.00,1.000000,,2013-04-26 13:41:00,
2013-04-26 13:52:00,38.0,33.0,-100.00,ENE,64,5.0,8.0,81,0.00,,,0.00,1.000000,,2013-04-26 13:52:00,
2013-04-26 14:21:00,34.0,31.0,-100.00,ENE,76,7.0,9.0,89,0.00,,,-99.99,18.000000,,2013-04-26 14:21:00,
2013-04-26 14:32:00,34.0,31.0,-100.00,ENE,76,7.0,9.0,89,0.00,,,-99.99,18.000000,,2013-04-26 14:32:00,
2013-04-26 14:41:00,34.0,31.0,-100.00,ENE,76,7.0,9.0,89,0.00,,,-99.99,18.000000,,2013-04-26 14:41:00,
2013-04-26 14:51:00,34.0,31.0,-100.00,ENE,76,7.0,9.0,89,0.00,,,-99.99,18.000000,,2013-04-26 14:51:00,
2013-04-26 15:21:00,42.0,33.0,-100.00,ENE,65,8.0,11.0,71,0.00,,,0.00,140.000000,,2013-04-26 15:21:00,
2013-04-26 15:33:00,42.0,33.0,-100.00,ENE,65,8.0,11.0,71,0.00,,,0.00,140.000000,,2013-04-26 15:33:00,
2013-04-26 15:42:00,42.0,33.0,-100.00,ENE,65,8.0,11.0,71,0.00,,,0.00,140.000000,,2013-04-26 15:42:00,
2013-04-26 15:52:00,42.0,33.0,-100.00,ENE,65,8.0,11.0,71,0.00,,,0.00,140.000000,,2013-04-26 15:52:00,
2013-04-26 16:42:00,52.0,36.0,-100.00,North,4,4.0,12.0,54,0.00,,,0.00,387.000000,,2013-04-26 16:42:00,
2013-04-26 16:52:00,52.0,36.0,-100.00,North,4,4.0,12.0,54,0.00,,,0.00,387.000000,,2013-04-26 16:52:00,
2013-04-26 17:21:00,61.0,37.0,-100.00,NE,46,2.0,8.0,41,0.00,,,0.00,587.000000,,2013-04-26 17:21:00,
2013-04-26 17:31:00,61.0,37.0,-100.00,NE,46,2.0,8.0,41,0.00,,,0.00,587.000000,,2013-04-26 17:31:00,
2013-04-26 17:41:00,61.0,37.0,-100.00,NE,46,2.0,8.0,41,0.00,,,0.00,587.000000,,2013-04-26 17:41:00,
2013-04-26 17:51:00,61.0,37.0,-100.00,NE,46,2.0,8.0,41,0.00,,,0.00,587.000000,,2013-04-26 17:51:00,
2013-04-26 18:22:00,64.0,40.0,-100.00,WSW,254,5.0,9.0,41,0.00,,,0.00,756.000000,,2013-04-26 18:22:00,
2013-04-26 18:33:00,64.0,40.0,-100.00,WSW,254,5.0,9.0,41,0.00,,,0.00,756.000000,,2013-04-26 18:33:00,
2013-04-26 18:41:00,64.0,40.0,-100.00,WSW,254,5.0,9.0,41,0.00,,,0.00,756.000000,,2013-04-26 18:41:00,
2013-04-26 18:51:00,64.0,40.0,-100.00,WSW,254,5.0,9.0,41,0.00,,,0.00,756.000000,,2013-04-26 18:51:00,
2013-04-26 19:22:00,66.0,35.0,-100.00,West,259,7.0,12.0,32,0.00,,,0.00,886.000000,,2013-04-26 19:22:00,
2013-04-26 19:31:00,66.0,35.0,-100.00,West,259,7.0,12.0,32,0.00,,,0.00,886.000000,,2013-04-26 19:31:00,
2013-04-26 19:41:00,66.0,35.0,-100.00,West,259,7.0,12.0,32,0.00,,,0.00,886.000000,,2013-04-26 19:41:00,
2013-04-26 19:52:00,66.0,35.0,-100.00,West,259,7.0,12.0,32,0.00,,,0.00,886.000000,,2013-04-26 19:52:00,
2013-04-26 20:21:00,69.0,35.0,-100.00,WSW,245,7.0,15.0,28,0.00,,,0.00,961.000000,,2013-04-26 20:21:00,
2013-04-26 20:32:00,69.0,35.0,-100.00,WSW,245,7.0,15.0,28,0.00,,,0.00,961.000000,,2013-04-26 20:32:00,
2013-04-26 20:42:00,69.0,35.0,-100.00,WSW,245,7.0,15.0,28,0.00,,,0.00,961.000000,,2013-04-26 20:42:00,
2013-04-26 20:51:00,69.0,35.0,-100.00,WSW,245,7.0,15.0,28,0.00,,,0.00,961.000000,,2013-04-26 20:51:00,
2013-04-26 21:21:00,72.0,31.0,-100.00,South,175,5.0,14.0,22,0.00,,,0.00,978.000000,,2013-04-26 21:21:00,
2013-04-26 21:32:00,72.0,31.0,-100.00,South,175,5.0,14.0,22,0.00,,,0.00,978.000000,,2013-04-26 21:32:00,
2013-04-26 21:42:00,72.0,31.0,-100.00,South,175,5.0,14.0,22,0.00,,,0.00,978.000000,,2013-04-26 21:42:00,
2013-04-26 21:52:00,72.0,31.0,-100.00,South,175,5.0,14.0,22,0.00,,,0.00,978.000000,,2013-04-26 21:52:00,
2013-04-26 22:22:00,75.0,32.0,-100.00,West,266,7.0,12.0,21,0.00,,,0.00,931.000000,,2013-04-26 22:22:00,
2013-04-26 22:33:00,75.0,32.0,-100.00,West,266,7.0,12.0,21,0.00,,,0.00,931.000000,,2013-04-26 22:33:00,
2013-04-26 22:42:00,75.0,32.0,-100.00,West,266,7.0,12.0,21,0.00,,,0.00,931.000000,,2013-04-26 22:42:00,
2013-04-26 22:52:00,75.0,32.0,-100.00,West,266,7.0,12.0,21,0.00,,,0.00,931.000000,,2013-04-26 22:52:00,
2013-04-26 23:21:00,74.0,32.0,-100.00,WNW,294,8.0,13.0,21,0.00,,,0.00,824.000000,,2013-04-26 23:21:00,
2013-04-26 23:32:00,74.0,32.0,-100.00,WNW,294,8.0,13.0,21,0.00,,,0.00,824.000000,,2013-04-26 23:32:00,
2013-04-26 23:42:00,74.0,32.0,-100.00,WNW,294,8.0,13.0,21,0.00,,,0.00,824.000000,,2013-04-26 23:42:00,
2013-04-26 23:52:00,74.0,32.0,-100.00,WNW,294,8.0,13.0,21,0.00,,,0.00,824.000000,,2013-04-26 23:52:00,